Year,Month,Day,Hour,Minute,Value (Times are PST for temperature in C)
2019,03,28,00,00,3.30
2019,03,28,00,01,3.30
2019,03,28,00,02,3.30
2019,03,28,00,03,3.30
2019,03,28,00,04,3.30
2019,03,28,00,05,3.30
2019,03,28,00,06,3.20
2019,03,28,00,07,3.20
2019,03,28,00,08,3.20
2019,03,28,00,09,3.20
2019,03,28,00,10,3.20
2019,03,28,00,11,3.20
2019,03,28,00,12,3.20
2019,03,28,00,13,3.20
2019,03,28,00,14,3.20
2019,03,28,00,15,3.10
2019,03,28,00,16,3.10
2019,03,28,00,17,3.10
2019,03,28,00,18,3.10
2019,03,28,00,19,3.10
2019,03,28,00,20,3.10
2019,03,28,00,21,3.10
2019,03,28,00,22,3.10
2019,03,28,00,23,3.10
2019,03,28,00,24,3.10
2019,03,28,00,25,3.10
2019,03,28,00,26,3.10
2019,03,28,00,27,3.10
2019,03,28,00,28,3.10
2019,03,28,00,29,3.10
2019,03,28,00,30,3.10
2019,03,28,00,31,3.10
2019,03,28,00,32,3.10
2019,03,28,00,33,3.10
2019,03,28,00,34,3.10
2019,03,28,00,35,3.10
2019,03,28,00,36,3.10
2019,03,28,00,37,3.10
2019,03,28,00,38,3.10
2019,03,28,00,39,3.10
2019,03,28,00,40,3.10
2019,03,28,00,41,3.10
2019,03,28,00,42,3.10
2019,03,28,00,43,3.10
2019,03,28,00,44,3.10
2019,03,28,00,45,3.10
2019,03,28,00,46,3.10
2019,03,28,00,47,3.20
2019,03,28,00,48,3.20
2019,03,28,00,49,3.20
2019,03,28,00,50,3.20
2019,03,28,00,51,3.20
2019,03,28,00,52,3.20
2019,03,28,00,53,3.20
2019,03,28,00,54,3.20
2019,03,28,00,55,3.20
2019,03,28,00,56,3.30
2019,03,28,00,57,3.30
2019,03,28,00,58,3.30
2019,03,28,00,59,3.30
2019,03,28,01,00,3.30
2019,03,28,01,01,3.30
2019,03,28,01,02,3.30
2019,03,28,01,03,3.30
2019,03,28,01,04,3.30
2019,03,28,01,05,3.30
2019,03,28,01,06,3.30
2019,03,28,01,07,3.30
2019,03,28,01,08,3.30
2019,03,28,01,09,3.40
2019,03,28,01,10,3.40
2019,03,28,01,11,3.40
2019,03,28,01,12,3.40
2019,03,28,01,13,3.40
2019,03,28,01,14,3.40
2019,03,28,01,15,3.40
2019,03,28,01,16,3.40
2019,03,28,01,17,3.50
2019,03,28,01,18,3.50
2019,03,28,01,19,3.50
2019,03,28,01,20,3.50
2019,03,28,01,21,3.50
2019,03,28,01,22,3.50
2019,03,28,01,23,3.50
2019,03,28,01,24,3.60
2019,03,28,01,25,3.60
2019,03,28,01,26,3.60
2019,03,28,01,27,3.60
2019,03,28,01,28,3.60
2019,03,28,01,29,3.60
2019,03,28,01,30,3.60
2019,03,28,01,31,3.70
2019,03,28,01,32,3.70
2019,03,28,01,33,3.70
2019,03,28,01,34,3.70
2019,03,28,01,35,3.70
2019,03,28,01,36,3.70
2019,03,28,01,37,3.70
2019,03,28,01,38,3.70
2019,03,28,01,39,3.80
2019,03,28,01,40,3.80
2019,03,28,01,41,3.80
2019,03,28,01,42,3.80
2019,03,28,01,43,3.80
2019,03,28,01,44,3.80
2019,03,28,01,45,3.80
2019,03,28,01,46,3.80
2019,03,28,01,47,3.80
2019,03,28,01,48,3.80
2019,03,28,01,49,3.80
2019,03,28,01,50,3.80
2019,03,28,01,51,3.80
2019,03,28,01,52,3.90
2019,03,28,01,53,3.90
2019,03,28,01,54,3.90
2019,03,28,01,55,3.90
2019,03,28,01,56,3.90
2019,03,28,01,57,3.90
2019,03,28,01,58,3.90
2019,03,28,01,59,3.90
2019,03,28,02,00,3.90
2019,03,28,02,01,4.00
2019,03,28,02,02,4.00
2019,03,28,02,03,4.10
2019,03,28,02,04,4.10
2019,03,28,02,05,4.10
2019,03,28,02,06,4.10
2019,03,28,02,07,4.10
2019,03,28,02,08,4.10
2019,03,28,02,09,4.10
2019,03,28,02,10,4.10
2019,03,28,02,11,4.20
2019,03,28,02,12,4.20
2019,03,28,02,13,4.20
2019,03,28,02,14,4.20
2019,03,28,02,15,4.20
2019,03,28,02,16,4.20
2019,03,28,02,17,4.20
2019,03,28,02,18,4.20
2019,03,28,02,19,4.20
2019,03,28,02,20,4.20
2019,03,28,02,21,4.20
2019,03,28,02,22,4.20
2019,03,28,02,23,4.30
2019,03,28,02,24,4.30
2019,03,28,02,25,4.20
2019,03,28,02,26,4.20
2019,03,28,02,27,4.20
2019,03,28,02,28,4.20
2019,03,28,02,29,4.20
2019,03,28,02,30,4.20
2019,03,28,02,31,4.20
2019,03,28,02,32,4.20
2019,03,28,02,33,4.20
2019,03,28,02,34,4.20
2019,03,28,02,35,4.20
2019,03,28,02,36,4.20
2019,03,28,02,37,4.20
2019,03,28,02,38,4.10
2019,03,28,02,39,4.20
2019,03,28,02,40,4.20
2019,03,28,02,41,4.20
2019,03,28,02,42,4.20
2019,03,28,02,43,4.20
2019,03,28,02,44,4.20
2019,03,28,02,45,4.20
2019,03,28,02,46,4.20
2019,03,28,02,47,4.20
2019,03,28,02,48,4.20
2019,03,28,02,49,4.20
2019,03,28,02,50,4.20
2019,03,28,02,51,4.20
2019,03,28,02,52,4.20
2019,03,28,02,53,4.20
2019,03,28,02,54,4.20
2019,03,28,02,55,4.20
2019,03,28,02,56,4.20
2019,03,28,02,57,4.20
2019,03,28,02,58,4.20
2019,03,28,02,59,4.20
2019,03,28,03,00,4.20
2019,03,28,03,01,4.20
2019,03,28,03,02,4.20
2019,03,28,03,03,4.20
2019,03,28,03,04,4.20
2019,03,28,03,05,4.20
2019,03,28,03,06,4.20
2019,03,28,03,07,4.20
2019,03,28,03,08,4.20
2019,03,28,03,09,4.30
2019,03,28,03,10,4.30
2019,03,28,03,11,4.30
2019,03,28,03,12,4.30
2019,03,28,03,13,4.30
2019,03,28,03,14,4.30
2019,03,28,03,15,4.30
2019,03,28,03,16,4.30
2019,03,28,03,17,4.30
2019,03,28,03,18,4.30
2019,03,28,03,19,4.40
2019,03,28,03,20,4.40
2019,03,28,03,21,4.40
2019,03,28,03,22,4.40
2019,03,28,03,23,4.40
2019,03,28,03,24,4.30
2019,03,28,03,25,4.30
2019,03,28,03,26,4.30
2019,03,28,03,27,4.30
2019,03,28,03,28,4.30
2019,03,28,03,29,4.30
2019,03,28,03,30,4.30
2019,03,28,03,31,4.30
2019,03,28,03,32,4.30
2019,03,28,03,33,4.30
2019,03,28,03,34,4.30
2019,03,28,03,35,4.30
2019,03,28,03,36,4.30
2019,03,28,03,37,4.30
2019,03,28,03,38,4.30
2019,03,28,03,39,4.30
2019,03,28,03,40,4.30
2019,03,28,03,41,4.30
2019,03,28,03,42,4.30
2019,03,28,03,43,4.30
2019,03,28,03,44,4.30
2019,03,28,03,45,4.30
2019,03,28,03,46,4.30
2019,03,28,03,47,4.30
2019,03,28,03,48,4.30
2019,03,28,03,49,4.30
2019,03,28,03,50,4.30
2019,03,28,03,51,4.30
2019,03,28,03,52,4.30
2019,03,28,03,53,4.30
2019,03,28,03,54,4.30
2019,03,28,03,55,4.30
2019,03,28,03,56,4.30
2019,03,28,03,57,4.30
2019,03,28,03,58,4.30
2019,03,28,03,59,4.30
2019,03,28,04,00,4.30
2019,03,28,04,01,4.30
2019,03,28,04,02,4.30
2019,03,28,04,03,4.30
2019,03,28,04,04,4.30
2019,03,28,04,05,4.30
2019,03,28,04,06,4.30
2019,03,28,04,07,4.30
2019,03,28,04,08,4.30
2019,03,28,04,09,4.30
2019,03,28,04,10,4.30
2019,03,28,04,11,4.30
2019,03,28,04,12,4.30
2019,03,28,04,13,4.30
2019,03,28,04,14,4.30
2019,03,28,04,15,4.30
2019,03,28,04,16,4.30
2019,03,28,04,17,4.30
2019,03,28,04,18,4.30
2019,03,28,04,19,4.30
2019,03,28,04,20,4.30
2019,03,28,04,21,4.30
2019,03,28,04,22,4.30
2019,03,28,04,23,4.30
2019,03,28,04,24,4.30
2019,03,28,04,25,4.30
2019,03,28,04,26,4.30
2019,03,28,04,27,4.30
2019,03,28,04,28,4.30
2019,03,28,04,29,4.30
2019,03,28,04,30,4.30
2019,03,28,04,31,4.30
2019,03,28,04,32,4.30
2019,03,28,04,33,4.30
2019,03,28,04,34,4.30
2019,03,28,04,35,4.30
2019,03,28,04,36,4.30
2019,03,28,04,37,4.30
2019,03,28,04,38,4.30
2019,03,28,04,39,4.30
2019,03,28,04,40,4.30
2019,03,28,04,41,4.30
2019,03,28,04,42,4.30
2019,03,28,04,43,4.30
2019,03,28,04,44,4.30
2019,03,28,04,45,4.30
2019,03,28,04,46,4.30
2019,03,28,04,47,4.30
2019,03,28,04,48,4.30
2019,03,28,04,49,4.30
2019,03,28,04,50,4.30
2019,03,28,04,51,4.30
2019,03,28,04,52,4.30
2019,03,28,04,53,4.30
2019,03,28,04,54,4.30
2019,03,28,04,55,4.30
2019,03,28,04,56,4.30
2019,03,28,04,57,4.30
2019,03,28,04,58,4.30
2019,03,28,04,59,4.30
2019,03,28,05,00,4.30
2019,03,28,05,01,4.30
2019,03,28,05,02,4.20
2019,03,28,05,03,4.20
2019,03,28,05,04,4.20
2019,03,28,05,05,4.20
2019,03,28,05,06,4.20
2019,03,28,05,07,4.20
2019,03,28,05,08,4.20
2019,03,28,05,09,4.10
2019,03,28,05,10,4.10
2019,03,28,05,11,4.10
2019,03,28,05,12,4.10
2019,03,28,05,13,4.10
2019,03,28,05,14,4.10
2019,03,28,05,15,4.10
2019,03,28,05,16,4.00
2019,03,28,05,17,4.00
2019,03,28,05,18,4.00
2019,03,28,05,19,3.90
2019,03,28,05,20,3.90
2019,03,28,05,21,3.90
2019,03,28,05,22,3.90
2019,03,28,05,23,3.90
2019,03,28,05,24,3.90
2019,03,28,05,25,3.80
2019,03,28,05,26,3.80
2019,03,28,05,27,3.80
2019,03,28,05,28,3.80
2019,03,28,05,29,3.80
2019,03,28,05,30,3.80
2019,03,28,05,31,3.70
2019,03,28,05,32,3.70
2019,03,28,05,33,3.70
2019,03,28,05,34,3.70
2019,03,28,05,35,3.70
2019,03,28,05,36,3.70
2019,03,28,05,37,3.70
2019,03,28,05,38,3.60
2019,03,28,05,39,3.60
2019,03,28,05,40,3.60
2019,03,28,05,41,3.60
2019,03,28,05,42,3.60
2019,03,28,05,43,3.50
2019,03,28,05,44,3.50
2019,03,28,05,45,3.50
2019,03,28,05,46,3.50
2019,03,28,05,47,3.40
2019,03,28,05,48,3.40
2019,03,28,05,49,3.40
2019,03,28,05,50,3.40
2019,03,28,05,51,3.30
2019,03,28,05,52,3.30
2019,03,28,05,53,3.30
2019,03,28,05,54,3.30
2019,03,28,05,55,3.30
2019,03,28,05,56,3.20
2019,03,28,05,57,3.20
2019,03,28,05,58,3.20
2019,03,28,05,59,3.20
2019,03,28,06,00,3.20
2019,03,28,06,01,3.10
2019,03,28,06,02,3.10
2019,03,28,06,03,3.10
2019,03,28,06,04,3.10
2019,03,28,06,05,3.10
2019,03,28,06,06,3.00
2019,03,28,06,07,3.00
2019,03,28,06,08,3.00
2019,03,28,06,09,2.90
2019,03,28,06,10,2.90
2019,03,28,06,11,2.90
2019,03,28,06,12,2.90
2019,03,28,06,13,2.80
2019,03,28,06,14,2.80
2019,03,28,06,15,2.80
2019,03,28,06,16,2.80
2019,03,28,06,17,2.70
2019,03,28,06,18,2.70
2019,03,28,06,19,2.70
2019,03,28,06,20,2.70
2019,03,28,06,21,2.70
2019,03,28,06,22,2.60
2019,03,28,06,23,2.60
2019,03,28,06,24,2.60
2019,03,28,06,25,2.60
2019,03,28,06,26,2.60
2019,03,28,06,27,2.50
2019,03,28,06,28,2.50
2019,03,28,06,29,2.50
2019,03,28,06,30,2.50
2019,03,28,06,31,2.50
2019,03,28,06,32,2.40
2019,03,28,06,33,2.40
2019,03,28,06,34,2.40
2019,03,28,06,35,2.40
2019,03,28,06,36,2.40
2019,03,28,06,37,2.40
2019,03,28,06,38,2.30
2019,03,28,06,39,2.30
2019,03,28,06,40,2.30
2019,03,28,06,41,2.30
2019,03,28,06,42,2.30
2019,03,28,06,43,2.20
2019,03,28,06,44,2.20
2019,03,28,06,45,2.20
2019,03,28,06,46,2.20
2019,03,28,06,47,2.20
2019,03,28,06,48,2.20
2019,03,28,06,49,2.20
2019,03,28,06,50,2.20
2019,03,28,06,51,2.10
2019,03,28,06,52,2.10
2019,03,28,06,53,2.10
2019,03,28,06,54,2.10
2019,03,28,06,55,2.00
2019,03,28,06,56,2.00
2019,03,28,06,57,1.90
2019,03,28,06,58,1.90
2019,03,28,06,59,1.90
2019,03,28,07,00,1.90
2019,03,28,07,01,1.80
2019,03,28,07,02,1.80
2019,03,28,07,03,1.80
2019,03,28,07,04,1.80
2019,03,28,07,05,1.80
2019,03,28,07,06,1.80
2019,03,28,07,07,1.80
2019,03,28,07,08,1.80
2019,03,28,07,09,1.80
2019,03,28,07,10,1.80
2019,03,28,07,11,1.80
2019,03,28,07,12,1.80
2019,03,28,07,13,1.80
2019,03,28,07,14,1.80
2019,03,28,07,15,1.70
2019,03,28,07,16,1.70
2019,03,28,07,17,1.70
2019,03,28,07,18,1.70
2019,03,28,07,19,1.70
2019,03,28,07,20,1.70
2019,03,28,07,21,1.70
2019,03,28,07,22,1.70
2019,03,28,07,23,1.70
2019,03,28,07,24,1.70
2019,03,28,07,25,1.70
2019,03,28,07,26,1.70
2019,03,28,07,27,1.70
2019,03,28,07,28,1.70
2019,03,28,07,29,1.70
2019,03,28,07,30,1.70
2019,03,28,07,31,1.70
2019,03,28,07,32,1.70
2019,03,28,07,33,1.70
2019,03,28,07,34,1.70
2019,03,28,07,35,1.70
2019,03,28,07,36,1.70
2019,03,28,07,37,1.70
2019,03,28,07,38,1.70
2019,03,28,07,39,1.70
2019,03,28,07,40,1.70
2019,03,28,07,41,1.70
2019,03,28,07,42,1.70
2019,03,28,07,43,1.70
2019,03,28,07,44,1.60
2019,03,28,07,45,1.60
2019,03,28,07,46,1.60
2019,03,28,07,47,1.60
2019,03,28,07,48,1.60
2019,03,28,07,49,1.60
2019,03,28,07,50,1.60
2019,03,28,07,51,1.60
2019,03,28,07,52,1.60
2019,03,28,07,53,1.70
2019,03,28,07,54,1.70
2019,03,28,07,55,1.70
2019,03,28,07,56,1.70
2019,03,28,07,57,1.70
2019,03,28,07,58,1.70
2019,03,28,07,59,1.70
2019,03,28,08,00,1.70
2019,03,28,08,01,1.70
2019,03,28,08,02,1.80
2019,03,28,08,03,1.80
2019,03,28,08,04,1.80
2019,03,28,08,05,1.80
2019,03,28,08,06,1.80
2019,03,28,08,07,1.80
2019,03,28,08,08,1.90
2019,03,28,08,09,1.90
2019,03,28,08,10,1.90
2019,03,28,08,11,1.90
2019,03,28,08,12,1.90
2019,03,28,08,13,2.00
2019,03,28,08,14,2.00
2019,03,28,08,15,2.00
2019,03,28,08,16,2.10
2019,03,28,08,17,2.10
2019,03,28,08,18,2.10
2019,03,28,08,19,2.20
2019,03,28,08,20,2.20
2019,03,28,08,21,2.20
2019,03,28,08,22,2.30
2019,03,28,08,23,2.30
2019,03,28,08,24,2.30
2019,03,28,08,25,2.40
2019,03,28,08,26,2.40
2019,03,28,08,27,2.40
2019,03,28,08,28,2.50
2019,03,28,08,29,2.50
2019,03,28,08,30,2.60
2019,03,28,08,31,2.60
2019,03,28,08,32,2.60
2019,03,28,08,33,2.70
2019,03,28,08,34,2.70
2019,03,28,08,35,2.70
2019,03,28,08,36,2.80
2019,03,28,08,37,2.80
2019,03,28,08,38,2.80
2019,03,28,08,39,2.90
2019,03,28,08,40,2.90
2019,03,28,08,41,2.90
2019,03,28,08,42,3.00
2019,03,28,08,43,3.00
2019,03,28,08,44,3.10
2019,03,28,08,45,3.10
2019,03,28,08,46,3.20
2019,03,28,08,47,3.20
2019,03,28,08,48,3.20
2019,03,28,08,49,3.30
2019,03,28,08,50,3.30
2019,03,28,08,51,3.30
2019,03,28,08,52,3.40
2019,03,28,08,53,3.40
2019,03,28,08,54,3.50
2019,03,28,08,55,3.50
2019,03,28,08,56,3.60
2019,03,28,08,57,3.60
2019,03,28,08,58,3.70
2019,03,28,08,59,3.80
2019,03,28,09,00,3.80
2019,03,28,09,01,3.90
2019,03,28,09,02,3.90
2019,03,28,09,03,3.90
2019,03,28,09,04,3.90
2019,03,28,09,05,4.10
2019,03,28,09,06,4.20
2019,03,28,09,07,4.20
2019,03,28,09,08,4.30
2019,03,28,09,09,4.40
2019,03,28,09,10,4.40
2019,03,28,09,11,4.50
2019,03,28,09,12,4.60
2019,03,28,09,13,4.60
2019,03,28,09,14,4.70
2019,03,28,09,15,4.80
2019,03,28,09,16,4.80
2019,03,28,09,17,4.90
2019,03,28,09,18,5.00
2019,03,28,09,19,5.10
2019,03,28,09,20,5.20
2019,03,28,09,21,5.30
2019,03,28,09,22,5.40
2019,03,28,09,23,5.50
2019,03,28,09,24,5.60
2019,03,28,09,25,5.70
2019,03,28,09,26,5.80
2019,03,28,09,27,5.90
2019,03,28,09,28,5.90
2019,03,28,09,29,5.90
2019,03,28,09,30,5.90
2019,03,28,09,31,6.00
2019,03,28,09,32,6.00
2019,03,28,09,33,6.10
2019,03,28,09,34,6.20
2019,03,28,09,35,6.20
2019,03,28,09,36,6.30
2019,03,28,09,37,6.30
2019,03,28,09,38,6.40
2019,03,28,09,39,6.50
2019,03,28,09,40,6.60
2019,03,28,09,41,6.70
2019,03,28,09,42,6.80
2019,03,28,09,43,6.90
2019,03,28,09,44,7.00
2019,03,28,09,45,7.10
2019,03,28,09,46,7.20
2019,03,28,09,47,7.30
2019,03,28,09,48,7.30
2019,03,28,09,49,7.50
2019,03,28,09,50,7.50
2019,03,28,09,51,7.60
2019,03,28,09,52,7.60
2019,03,28,09,53,7.70
2019,03,28,09,54,7.70
2019,03,28,09,55,7.80
2019,03,28,09,56,7.80
2019,03,28,09,57,7.90
2019,03,28,09,58,7.90
2019,03,28,09,59,7.90
2019,03,28,10,00,8.00
2019,03,28,10,01,8.00
2019,03,28,10,02,8.10
2019,03,28,10,03,8.20
2019,03,28,10,04,8.20
2019,03,28,10,05,8.30
2019,03,28,10,06,8.30
2019,03,28,10,07,8.30
2019,03,28,10,08,8.40
2019,03,28,10,09,8.40
2019,03,28,10,10,8.50
2019,03,28,10,11,8.60
2019,03,28,10,12,8.70
2019,03,28,10,13,8.80
2019,03,28,10,14,8.90
2019,03,28,10,15,8.90
2019,03,28,10,16,9.00
2019,03,28,10,17,9.10
2019,03,28,10,18,9.20
2019,03,28,10,19,9.20
2019,03,28,10,20,9.30
2019,03,28,10,21,9.30
2019,03,28,10,22,9.40
2019,03,28,10,23,9.40
2019,03,28,10,24,9.50
2019,03,28,10,25,9.60
2019,03,28,10,26,9.70
2019,03,28,10,27,9.70
2019,03,28,10,28,9.80
2019,03,28,10,29,9.80
2019,03,28,10,30,9.80
2019,03,28,10,31,9.90
2019,03,28,10,32,9.90
2019,03,28,10,33,9.90
2019,03,28,10,34,10.00
2019,03,28,10,35,10.10
2019,03,28,10,36,10.10
2019,03,28,10,37,10.20
2019,03,28,10,38,10.30
2019,03,28,10,39,10.40
2019,03,28,10,40,10.50
2019,03,28,10,41,10.60
2019,03,28,10,42,10.70
2019,03,28,10,43,10.70
2019,03,28,10,44,10.70
2019,03,28,10,45,10.70
2019,03,28,10,46,10.80
2019,03,28,10,47,10.90
2019,03,28,10,48,10.90
2019,03,28,10,49,11.00
2019,03,28,10,50,11.20
2019,03,28,10,51,11.30
2019,03,28,10,52,11.40
2019,03,28,10,53,11.40
2019,03,28,10,54,11.50
2019,03,28,10,55,11.50
2019,03,28,10,56,11.50
2019,03,28,10,57,11.60
2019,03,28,10,58,11.60
2019,03,28,10,59,11.60
2019,03,28,11,00,11.60
2019,03,28,11,01,11.60
2019,03,28,11,02,11.70
2019,03,28,11,03,11.70
2019,03,28,11,04,11.70
2019,03,28,11,05,11.70
2019,03,28,11,06,11.80
2019,03,28,11,07,11.80
2019,03,28,11,08,11.80
2019,03,28,11,09,11.80
2019,03,28,11,10,11.80
2019,03,28,11,11,11.80
2019,03,28,11,12,11.90
2019,03,28,11,13,12.00
2019,03,28,11,14,12.00
2019,03,28,11,15,12.10
2019,03,28,11,16,12.10
2019,03,28,11,17,12.20
2019,03,28,11,18,12.30
2019,03,28,11,19,12.40
2019,03,28,11,20,12.60
2019,03,28,11,21,12.70
2019,03,28,11,22,12.80
2019,03,28,11,23,12.80
2019,03,28,11,24,12.70
2019,03,28,11,25,12.70
2019,03,28,11,26,12.60
2019,03,28,11,27,12.60
2019,03,28,11,28,12.60
2019,03,28,11,29,12.60
2019,03,28,11,30,12.60
2019,03,28,11,31,12.60
2019,03,28,11,32,12.60
2019,03,28,11,33,12.70
2019,03,28,11,34,12.70
2019,03,28,11,35,12.70
2019,03,28,11,36,12.80
2019,03,28,11,37,12.80
2019,03,28,11,38,12.90
2019,03,28,11,39,12.90
2019,03,28,11,40,13.00
2019,03,28,11,41,13.10
2019,03,28,11,42,13.20
2019,03,28,11,43,13.40
2019,03,28,11,44,13.50
2019,03,28,11,45,13.70
2019,03,28,11,46,13.80
2019,03,28,11,47,13.80
2019,03,28,11,48,13.90
2019,03,28,11,49,14.00
2019,03,28,11,50,14.10
2019,03,28,11,51,14.10
2019,03,28,11,52,14.10
2019,03,28,11,53,14.10
2019,03,28,11,54,14.20
2019,03,28,11,55,14.20
2019,03,28,11,56,14.20
2019,03,28,11,57,14.20
2019,03,28,11,58,14.20
2019,03,28,11,59,14.30
2019,03,28,12,00,14.20
2019,03,28,12,01,14.20
2019,03,28,12,02,14.20
2019,03,28,12,03,14.30
2019,03,28,12,04,14.30
2019,03,28,12,05,14.30
2019,03,28,12,06,14.40
2019,03,28,12,07,14.30
2019,03,28,12,08,14.30
2019,03,28,12,09,14.20
2019,03,28,12,10,14.10
2019,03,28,12,11,14.00
2019,03,28,12,12,14.00
2019,03,28,12,13,14.00
2019,03,28,12,14,13.90
2019,03,28,12,15,13.90
2019,03,28,12,16,13.90
2019,03,28,12,17,13.90
2019,03,28,12,18,14.00
2019,03,28,12,19,14.10
2019,03,28,12,20,14.10
2019,03,28,12,21,14.20
2019,03,28,12,22,14.30
2019,03,28,12,23,14.40
2019,03,28,12,24,14.50
2019,03,28,12,25,14.50
2019,03,28,12,26,14.60
2019,03,28,12,27,14.50
2019,03,28,12,28,14.50
2019,03,28,12,29,14.40
2019,03,28,12,30,14.40
2019,03,28,12,31,14.40
2019,03,28,12,32,14.40
2019,03,28,12,33,14.40
2019,03,28,12,34,14.40
2019,03,28,12,35,14.40
2019,03,28,12,36,14.50
2019,03,28,12,37,14.50
2019,03,28,12,38,14.60
2019,03,28,12,39,14.70
2019,03,28,12,40,14.80
2019,03,28,12,41,14.80
2019,03,28,12,42,14.80
2019,03,28,12,43,14.80
2019,03,28,12,44,14.90
2019,03,28,12,45,14.90
2019,03,28,12,46,14.90
2019,03,28,12,47,14.90
2019,03,28,12,48,15.00
2019,03,28,12,49,15.00
2019,03,28,12,50,14.90
2019,03,28,12,51,14.90
2019,03,28,12,52,15.00
2019,03,28,12,53,15.00
2019,03,28,12,54,15.00
2019,03,28,12,55,15.00
2019,03,28,12,56,15.10
2019,03,28,12,57,15.20
2019,03,28,12,58,15.40
2019,03,28,12,59,15.50
2019,03,28,13,00,15.60
2019,03,28,13,01,15.70
2019,03,28,13,02,15.70
2019,03,28,13,03,15.70
2019,03,28,13,04,15.60
2019,03,28,13,05,15.50
2019,03,28,13,06,15.50
2019,03,28,13,07,15.30
2019,03,28,13,08,15.10
2019,03,28,13,09,15.00
2019,03,28,13,10,15.00
2019,03,28,13,11,14.80
2019,03,28,13,12,14.80
2019,03,28,13,13,14.80
2019,03,28,13,14,14.80
2019,03,28,13,15,14.80
2019,03,28,13,16,14.90
2019,03,28,13,17,14.90
2019,03,28,13,18,15.00
2019,03,28,13,19,15.00
2019,03,28,13,20,15.00
2019,03,28,13,21,15.00
2019,03,28,13,22,15.00
2019,03,28,13,23,15.10
2019,03,28,13,24,15.20
2019,03,28,13,25,15.30
2019,03,28,13,26,15.40
2019,03,28,13,27,15.50
2019,03,28,13,28,15.50
2019,03,28,13,29,15.60
2019,03,28,13,30,15.60
2019,03,28,13,31,15.50
2019,03,28,13,32,15.50
2019,03,28,13,33,15.40
2019,03,28,13,34,15.30
2019,03,28,13,35,15.20
2019,03,28,13,36,15.20
2019,03,28,13,37,15.20
2019,03,28,13,38,15.10
2019,03,28,13,39,15.00
2019,03,28,13,40,15.00
2019,03,28,13,41,15.00
2019,03,28,13,42,15.10
2019,03,28,13,43,15.20
2019,03,28,13,44,15.30
2019,03,28,13,45,15.40
2019,03,28,13,46,15.50
2019,03,28,13,47,15.70
2019,03,28,13,48,15.70
2019,03,28,13,49,15.70
2019,03,28,13,50,15.60
2019,03,28,13,51,15.50
2019,03,28,13,52,15.50
2019,03,28,13,53,15.50
2019,03,28,13,54,15.60
2019,03,28,13,55,15.60
2019,03,28,13,56,15.70
2019,03,28,13,57,15.70
2019,03,28,13,58,15.80
2019,03,28,13,59,15.70
2019,03,28,14,00,15.60
2019,03,28,14,01,15.60
2019,03,28,14,02,15.60
2019,03,28,14,03,15.60
2019,03,28,14,04,15.50
2019,03,28,14,05,15.40
2019,03,28,14,06,15.30
2019,03,28,14,07,15.20
2019,03,28,14,08,15.20
2019,03,28,14,09,15.20
2019,03,28,14,10,15.30
2019,03,28,14,11,15.30
2019,03,28,14,12,15.30
2019,03,28,14,13,15.30
2019,03,28,14,14,15.30
2019,03,28,14,15,15.30
2019,03,28,14,16,15.30
2019,03,28,14,17,15.30
2019,03,28,14,18,15.20
2019,03,28,14,19,15.10
2019,03,28,14,20,15.10
2019,03,28,14,21,15.10
2019,03,28,14,22,15.20
2019,03,28,14,23,15.30
2019,03,28,14,24,15.40
2019,03,28,14,25,15.50
2019,03,28,14,26,15.70
2019,03,28,14,27,15.80
2019,03,28,14,28,15.90
2019,03,28,14,29,16.00
2019,03,28,14,30,16.10
2019,03,28,14,31,16.20
2019,03,28,14,32,16.30
2019,03,28,14,33,16.30
2019,03,28,14,34,16.30
2019,03,28,14,35,16.30
2019,03,28,14,36,16.30
2019,03,28,14,37,16.20
2019,03,28,14,38,16.20
2019,03,28,14,39,16.10
2019,03,28,14,40,16.10
2019,03,28,14,41,16.10
2019,03,28,14,42,16.10
2019,03,28,14,43,16.20
2019,03,28,14,44,16.10
2019,03,28,14,45,16.10
2019,03,28,14,46,16.20
2019,03,28,14,47,16.30
2019,03,28,14,48,16.30
2019,03,28,14,49,16.30
2019,03,28,14,50,16.30
2019,03,28,14,51,16.30
2019,03,28,14,52,16.40
2019,03,28,14,53,16.50
2019,03,28,14,54,16.50
2019,03,28,14,55,16.60
2019,03,28,14,56,16.50
2019,03,28,14,57,16.40
2019,03,28,14,58,16.30
2019,03,28,14,59,16.10
2019,03,28,15,00,16.10
2019,03,28,15,01,16.00
2019,03,28,15,02,15.90
2019,03,28,15,03,15.80
2019,03,28,15,04,15.80
2019,03,28,15,05,15.70
2019,03,28,15,06,15.70
2019,03,28,15,07,15.70
2019,03,28,15,08,15.80
2019,03,28,15,09,15.80
2019,03,28,15,10,15.80
2019,03,28,15,11,15.80
2019,03,28,15,12,15.80
2019,03,28,15,13,15.90
2019,03,28,15,14,16.00
2019,03,28,15,15,16.10
2019,03,28,15,16,16.20
2019,03,28,15,17,16.10
2019,03,28,15,18,16.10
2019,03,28,15,19,16.10
2019,03,28,15,20,16.20
2019,03,28,15,21,16.20
2019,03,28,15,22,16.20
2019,03,28,15,23,16.30
2019,03,28,15,24,16.40
2019,03,28,15,25,16.40
2019,03,28,15,26,16.40
2019,03,28,15,27,16.40
2019,03,28,15,28,16.40
2019,03,28,15,29,16.40
2019,03,28,15,30,16.30
2019,03,28,15,31,16.10
2019,03,28,15,32,16.10
2019,03,28,15,33,16.10
2019,03,28,15,34,16.10
2019,03,28,15,35,16.00
2019,03,28,15,36,16.00
2019,03,28,15,37,16.00
2019,03,28,15,38,16.00
2019,03,28,15,39,16.00
2019,03,28,15,40,16.00
2019,03,28,15,41,16.00
2019,03,28,15,42,16.00
2019,03,28,15,43,16.00
2019,03,28,15,44,16.10
2019,03,28,15,45,16.10
2019,03,28,15,46,16.20
2019,03,28,15,47,16.20
2019,03,28,15,48,16.30
2019,03,28,15,49,16.30
2019,03,28,15,50,16.30
2019,03,28,15,51,16.40
2019,03,28,15,52,16.50
2019,03,28,15,53,16.40
2019,03,28,15,54,16.40
2019,03,28,15,55,16.30
2019,03,28,15,56,16.30
2019,03,28,15,57,16.20
2019,03,28,15,58,16.10
2019,03,28,15,59,16.00
2019,03,28,16,00,16.00
2019,03,28,16,01,16.00
2019,03,28,16,02,16.10
2019,03,28,16,03,16.10
2019,03,28,16,04,16.20
2019,03,28,16,05,16.20
2019,03,28,16,06,16.20
2019,03,28,16,07,16.10
2019,03,28,16,08,16.10
2019,03,28,16,09,16.00
2019,03,28,16,10,15.90
2019,03,28,16,11,15.90
2019,03,28,16,12,16.00
2019,03,28,16,13,16.00
2019,03,28,16,14,16.00
2019,03,28,16,15,16.00
2019,03,28,16,16,16.10
2019,03,28,16,17,16.20
2019,03,28,16,18,16.20
2019,03,28,16,19,16.20
2019,03,28,16,20,16.20
2019,03,28,16,21,16.20
2019,03,28,16,22,16.20
2019,03,28,16,23,16.10
2019,03,28,16,24,16.00
2019,03,28,16,25,15.90
2019,03,28,16,26,15.80
2019,03,28,16,27,15.80
2019,03,28,16,28,15.70
2019,03,28,16,29,15.70
2019,03,28,16,30,15.60
2019,03,28,16,31,15.60
2019,03,28,16,32,15.60
2019,03,28,16,33,15.60
2019,03,28,16,34,15.60
2019,03,28,16,35,15.60
2019,03,28,16,36,15.60
2019,03,28,16,37,15.60
2019,03,28,16,38,15.50
2019,03,28,16,39,15.50
2019,03,28,16,40,15.40
2019,03,28,16,41,15.40
2019,03,28,16,42,15.40
2019,03,28,16,43,15.40
2019,03,28,16,44,15.50
2019,03,28,16,45,15.60
2019,03,28,16,46,15.60
2019,03,28,16,47,15.70
2019,03,28,16,48,15.80
2019,03,28,16,49,15.90
2019,03,28,16,50,15.90
2019,03,28,16,51,16.00
2019,03,28,16,52,16.00
2019,03,28,16,53,16.10
2019,03,28,16,54,16.00
2019,03,28,16,55,16.00
2019,03,28,16,56,16.00
2019,03,28,16,57,15.90
2019,03,28,16,58,15.90
2019,03,28,16,59,15.80
2019,03,28,17,00,15.80
2019,03,28,17,01,15.80
2019,03,28,17,02,15.70
2019,03,28,17,03,15.70
2019,03,28,17,04,15.70
2019,03,28,17,05,15.70
2019,03,28,17,06,15.70
2019,03,28,17,07,15.70
2019,03,28,17,08,15.70
2019,03,28,17,09,15.70
2019,03,28,17,10,15.70
2019,03,28,17,11,15.70
2019,03,28,17,12,15.70
2019,03,28,17,13,15.70
2019,03,28,17,14,15.70
2019,03,28,17,15,15.70
2019,03,28,17,16,15.70
2019,03,28,17,17,15.70
2019,03,28,17,18,15.70
2019,03,28,17,19,15.70
2019,03,28,17,20,15.70
2019,03,28,17,21,15.70
2019,03,28,17,22,15.70
2019,03,28,17,23,15.70
2019,03,28,17,24,15.70
2019,03,28,17,25,15.70
2019,03,28,17,26,15.60
2019,03,28,17,27,15.60
2019,03,28,17,28,15.50
2019,03,28,17,29,15.50
2019,03,28,17,30,15.40
2019,03,28,17,31,15.40
2019,03,28,17,32,15.30
2019,03,28,17,33,15.30
2019,03,28,17,34,15.20
2019,03,28,17,35,15.20
2019,03,28,17,36,15.20
2019,03,28,17,37,15.10
2019,03,28,17,38,15.10
2019,03,28,17,39,15.10
2019,03,28,17,40,15.00
2019,03,28,17,41,15.00
2019,03,28,17,42,15.00
2019,03,28,17,43,15.00
2019,03,28,17,44,15.00
2019,03,28,17,45,15.00
2019,03,28,17,46,15.00
2019,03,28,17,47,15.00